| time (UTC) | temp F | wind direction | speed MPH | gust MPH | rain 1hr in | rain 24hr in | rain mn in | humidity % | barometer mb |
| 20260508233046 | 80 | 122 | 5.0 | 9.0 | 0.00 | 0.00 | 0.00 | 84 | 1012.2 |
| 20260508231550 | 80 | 99 | 5.0 | 11.0 | 0.00 | 0.00 | 0.00 | 84 | 1012.0 |
| 20260508230106 | 80 | 99 | 5.0 | 11.0 | 0.00 | 0.00 | 0.00 | 84 | 1012.0 |
| 20260508224517 | 80 | 86 | 6.0 | 12.0 | 0.00 | 0.00 | 0.00 | 84 | 1011.8 |
| 20260508223024 | 81 | 81 | 8.0 | 12.0 | 0.00 | 0.00 | 0.00 | 83 | 1011.7 |
| 20260508221545 | 81 | 101 | 7.0 | 13.0 | 0.00 | 0.00 | 0.00 | 82 | 1011.8 |
| 20260508214504 | 81 | 94 | 8.0 | 13.0 | 0.00 | 0.00 | 0.00 | 82 | 1012.0 |
| 20260508213022 | 81 | 114 | 8.0 | 13.0 | 0.00 | 0.00 | 0.00 | 80 | 1011.9 |
| 20260508211541 | 81 | 82 | 9.0 | 13.0 | 0.00 | 0.00 | 0.00 | 81 | 1012.1 |
| 20260508210105 | 82 | 65 | 8.0 | 13.0 | 0.00 | 0.00 | 0.00 | 79 | 1012.2 |
| 20260508204519 | 81 | 86 | 11.0 | 14.0 | 0.00 | 0.00 | 0.00 | 80 | 1012.4 |
| 20260508203031 | 82 | 94 | 5.0 | 13.0 | 0.00 | 0.00 | 0.00 | 80 | 1012.4 |
| 20260508201551 | 82 | 74 | 5.0 | 14.0 | 0.00 | 0.00 | 0.00 | 80 | 1012.4 |
| 20260508200004 | 82 | 76 | 7.0 | 12.0 | 0.00 | 0.00 | 0.00 | 78 | 1012.8 |
| 20260508194525 | 82 | 55 | 8.0 | 15.0 | 0.00 | 0.00 | 0.00 | 78 | 1013.1 |
| 20260508193051 | 82 | 77 | 7.0 | 15.0 | 0.00 | 0.00 | 0.00 | 78 | 1013.3 |
| 20260508191601 | 82 | 17 | 6.0 | 14.0 | 0.00 | 0.00 | 0.00 | 77 | 1013.4 |
| 20260508190006 | 82 | 66 | 5.0 | 15.0 | 0.00 | 0.00 | 0.00 | 77 | 1013.7 |
| 20260508184526 | 82 | 41 | 9.0 | 15.0 | 0.00 | 0.00 | 0.00 | 77 | 1013.9 |
| 20260508183045 | 82 | 110 | 7.0 | 13.0 | 0.00 | 0.00 | 0.00 | 79 | 1013.9 |
| 20260508181605 | 82 | 51 | 6.0 | 12.0 | 0.00 | 0.00 | 0.00 | 76 | 1014.1 |
| 20260508180007 | 82 | 57 | 8.0 | 14.0 | 0.00 | 0.00 | 0.00 | 77 | 1014.2 |
| 20260508174531 | 82 | 52 | 8.0 | 15.0 | 0.00 | 0.00 | 0.00 | 77 | 1014.3 |
| 20260508173035 | 82 | 107 | 4.0 | 15.0 | 0.00 | 0.00 | 0.00 | 78 | 1014.4 |
| 20260508171557 | 82 | 52 | 8.0 | 15.0 | 0.00 | 0.00 | 0.00 | 76 | 1014.5 |
| 20260508170010 | 82 | 43 | 9.0 | 14.0 | 0.00 | 0.00 | 0.00 | 74 | 1014.8 |
| 20260508164519 | 83 | 30 | 7.0 | 13.0 | 0.00 | 0.00 | 0.00 | 74 | 1014.8 |
| 20260508163058 | 82 | 47 | 7.0 | 13.0 | 0.00 | 0.00 | 0.00 | 73 | 1014.9 |
| 20260508161613 | 82 | 41 | 5.0 | 13.0 | 0.00 | 0.00 | 0.00 | 76 | 1015.2 |
| 20260508160021 | 83 | 46 | 7.0 | 11.0 | 0.00 | 0.00 | 0.00 | 72 | 1015.3 |
| 20260508154548 | 83 | 6 | 5.0 | 12.0 | 0.00 | 0.00 | 0.00 | 74 | 1015.4 |
| 20260508153012 | 82 | 45 | 3.0 | 11.0 | 0.00 | 0.00 | 0.00 | 77 | 1015.5 |
| 20260508151522 | 83 | 105 | 1.0 | 4.0 | 0.00 | 0.00 | 0.00 | 71 | 1015.4 |
| 20260508150051 | 83 | 294 | 2.0 | 7.0 | 0.00 | 0.00 | 0.00 | 71 | 1015.5 |
| 20260508144601 | 82 | 4 | 6.0 | 8.0 | 0.00 | 0.00 | 0.00 | 73 | 1015.5 |
| 20260508143018 | 81 | 13 | 1.0 | 7.0 | 0.00 | 0.00 | 0.00 | 76 | 1015.5 |
| 20260508141531 | 81 | 312 | 3.0 | 8.0 | 0.00 | 0.00 | 0.00 | 76 | 1015.5 |
| 20260508140044 | 80 | 328 | 3.0 | 7.0 | 0.00 | 0.00 | 0.00 | 77 | 1015.6 |
| 20260508134602 | 79 | 300 | 3.0 | 8.0 | 0.00 | 0.00 | 0.00 | 79 | 1015.5 |
| 20260508133010 | 79 | 342 | 1.0 | 4.0 | 0.00 | 0.00 | 0.00 | 80 | 1015.5 |
| 20260508131529 | 78 | 262 | 0.0 | 4.0 | 0.00 | 0.00 | 0.00 | 81 | 1015.4 |
| 20260508130055 | 76 | 255 | 1.0 | 4.0 | 0.00 | 0.00 | 0.00 | 82 | 1015.3 |
| 20260508124613 | 75 | 243 | 2.0 | 4.0 | 0.00 | 0.00 | 0.00 | 84 | 1015.4 |
| 20260508123023 | 74 | 284 | 0.0 | 3.0 | 0.00 | 0.00 | 0.00 | 84 | 1015.3 |
| 20260508121546 | 72 | 295 | 2.0 | 5.0 | 0.00 | 0.00 | 0.00 | 87 | 1015.3 |
| 20260508120112 | 71 | 269 | 1.0 | 4.0 | 0.00 | 0.00 | 0.00 | 88 | 1015.2 |
| 20260508114606 | 70 | 269 | 1.0 | 3.0 | 0.00 | 0.00 | 0.00 | 89 | 1015.0 |
| 20260508113113 | 68 | 274 | 0.0 | 3.0 | 0.00 | 0.00 | 0.00 | 89 | 1014.8 |
| 20260508111517 | 68 | 268 | 0.0 | 1.0 | 0.00 | 0.00 | 0.00 | 89 | 1014.5 |
| 20260508110042 | 67 | 255 | 1.0 | 3.0 | 0.00 | 0.00 | 0.00 | 89 | 1014.3 |
| 20260508104601 | 67 | 252 | 0.0 | 2.0 | 0.00 | 0.00 | 0.00 | 88 | 1014.1 |
| 20260508103031 | 67 | 241 | 0.0 | 2.0 | 0.00 | 0.00 | 0.00 | 87 | 1013.8 |
| 20260508101524 | 67 | 253 | 0.0 | 0.0 | 0.00 | 0.00 | 0.00 | 87 | 1013.6 |
| 20260508100058 | 67 | 271 | 0.0 | 0.0 | 0.00 | 0.00 | 0.00 | 86 | 1013.4 |
| 20260508094600 | 67 | 259 | 0.0 | 0.0 | 0.00 | 0.00 | 0.00 | 85 | 1013.3 |
| 20260508093010 | 68 | 248 | 0.0 | 2.0 | 0.00 | 0.00 | 0.00 | 84 | 1013.3 |
| 20260508091535 | 68 | 237 | 0.0 | 3.0 | 0.00 | 0.00 | 0.00 | 83 | 1013.2 |
| 20260508090052 | 68 | 250 | 1.0 | 3.0 | 0.00 | 0.00 | 0.00 | 83 | 1013.2 |
| 20260508084608 | 68 | 248 | 1.0 | 3.0 | 0.00 | 0.00 | 0.00 | 83 | 1013.2 |
| 20260508083010 | 69 | 242 | 0.0 | 1.0 | 0.00 | 0.00 | 0.00 | 81 | 1013.3 |
| 20260508081519 | 69 | 261 | 0.0 | 1.0 | 0.00 | 0.00 | 0.00 | 80 | 1013.2 |
| 20260508080027 | 69 | 248 | 0.0 | 2.0 | 0.00 | 0.00 | 0.00 | 80 | 1013.2 |
| 20260508074542 | 69 | 246 | 0.0 | 1.0 | 0.00 | 0.00 | 0.00 | 79 | 1013.3 |
| 20260508073051 | 70 | 234 | 0.0 | 2.0 | 0.00 | 0.00 | 0.00 | 79 | 1013.3 |
| 20260508071616 | 70 | 244 | 0.0 | 1.0 | 0.00 | 0.00 | 0.00 | 79 | 1013.3 |
| 20260508070005 | 70 | 246 | 0.0 | 1.0 | 0.00 | 0.00 | 0.00 | 79 | 1013.4 |
| 20260508064537 | 70 | 246 | 0.0 | 1.0 | 0.00 | 0.00 | 0.00 | 79 | 1013.4 |
| 20260508063055 | 71 | 243 | 0.0 | 1.0 | 0.00 | 0.00 | 0.00 | 79 | 1013.7 |
| 20260508061505 | 71 | 244 | 0.0 | 1.0 | 0.00 | 0.00 | 0.00 | 79 | 1013.8 |
| 20260508060029 | 72 | 245 | 0.0 | 1.0 | 0.00 | 0.00 | 0.00 | 79 | 1013.9 |
| 20260508054628 | 73 | 244 | 0.0 | 2.0 | 0.00 | 0.00 | 0.00 | 79 | 1014.0 |
| 20260508053106 | 73 | 250 | 0.0 | 1.0 | 0.00 | 0.00 | 0.00 | 81 | 1014.1 |
| 20260508051514 | 73 | 187 | 0.0 | 3.0 | 0.00 | 0.00 | 0.00 | 82 | 1014.0 |
| 20260508050030 | 73 | 217 | 0.0 | 4.0 | 0.00 | 0.00 | 0.00 | 82 | 1013.9 |
| 20260508044557 | 74 | 216 | 0.0 | 4.0 | 0.00 | 0.00 | 0.00 | 84 | 1014.1 |
| 20260508043111 | 74 | 172 | 0.0 | 5.0 | 0.00 | 0.00 | 0.00 | 85 | 1013.9 |
| 20260508041529 | 75 | 252 | 0.0 | 4.0 | 0.00 | 0.00 | 0.00 | 84 | 1013.8 |
| 20260508040034 | 75 | 236 | 0.0 | 6.0 | 0.00 | 0.00 | 0.00 | 84 | 1013.8 |
| 20260508034558 | 76 | 206 | 0.0 | 4.0 | 0.00 | 0.00 | 0.00 | 84 | 1013.8 |
| 20260508033013 | 76 | 254 | 0.0 | 4.0 | 0.00 | 0.00 | 0.00 | 84 | 1013.9 |
| 20260508031525 | 76 | 221 | 0.0 | 2.0 | 0.00 | 0.00 | 0.00 | 83 | 1013.8 |
| 20260508030046 | 77 | 164 | 0.0 | 4.0 | 0.00 | 0.00 | 0.00 | 83 | 1013.7 |
| 20260508024614 | 77 | 171 | 1.0 | 4.0 | 0.00 | 0.00 | 0.00 | 83 | 1013.6 |
| 20260508023112 | 78 | 179 | 0.0 | 3.0 | 0.00 | 0.00 | 0.00 | 82 | 1013.6 |
| 20260508021514 | 78 | 225 | 0.0 | 4.0 | 0.00 | 0.00 | 0.00 | 82 | 1013.5 |
| 20260508020035 | 79 | 149 | 0.0 | 5.0 | 0.00 | 0.00 | 0.00 | 81 | 1013.3 |
| 20260508014540 | 79 | 117 | 2.0 | 5.0 | 0.00 | 0.00 | 0.00 | 81 | 1013.2 |
| 20260508013104 | 79 | 128 | 1.0 | 7.0 | 0.00 | 0.00 | 0.00 | 82 | 1013.2 |
| 20260508011515 | 79 | 143 | 1.0 | 7.0 | 0.00 | 0.00 | 0.00 | 83 | 1013.0 |
| 20260508010046 | 80 | 133 | 6.0 | 11.0 | 0.00 | 0.00 | 0.00 | 83 | 1013.0 |
| 20260508004558 | 80 | 160 | 5.0 | 10.0 | 0.00 | 0.00 | 0.00 | 82 | 1012.9 |
| 20260508003011 | 80 | 143 | 4.0 | 10.0 | 0.00 | 0.00 | 0.00 | 82 | 1012.8 |
| 20260508001530 | 80 | 108 | 6.0 | 14.0 | 0.00 | 0.00 | 0.00 | 82 | 1012.9 |
| 20260508000057 | 80 | 139 | 6.0 | 16.0 | 0.00 | 0.00 | 0.00 | 81 | 1012.9 |
| 20260507234509 | 81 | 124 | 7.0 | 13.0 | 0.00 | 0.00 | 0.00 | 82 | 1012.8 |